Location: Peterborough
(44.3091°N, 78.3197°W)
Time: 16:42:26
(UTC-04:00)

Explorer 7 - Pass Details

Date: 22 March 2023
Orbit: 477 x 653 km, 50.3° (Epoch: 04 June)

Event Time Altitude Azimuth Distance (km) Brightness Sun altitude
Rises 23:06:15 0° 295° (WNW) 2,724 11.2 -35.9°
Reaches altitude 10° 23:08:38 10° 301° (WNW) 1,796 10.1 -36.2°
Enters shadow 23:08:49 11° 302° (WNW) 1,725 10.0 -36.2°
Maximum altitude 23:12:32 44° 15° (NNE) 721 - -36.6°
Drops below altitude 10° 23:16:14 10° 89° (E) 1,701 - -37.1°
Sets 23:18:26 0° 96° (E) 2,562 - -37.3°
